Flag for Colombia Weather past 2 weeks in Manizales, Colombia

Now
70 °F

Passing clouds.


Feels Like: 70 °F
Forecast: 57 / 73 °F
Wind: 8 mph from Southeast

Location: Pereira / Matecana

Current Time: Apr 24, 2015 at 11:38:35 PM

Latest Report: Apr 24, 2015 at 10:00 PM


Visibility: N/A

Pressure: 30.07 "Hg

Humidity: 83%

Dew point: 64 °F

Location of ManizalesLocation

Historic Weather in Manizales — Graph

°F

Manizales temperature yesterday

Maximum temperature yesterday: 82 °F (at 1:00 PM)
Minimum temperature yesterday: 64 °F (at 6:00 AM)
Average temperature yesterday: 75 °F

Past Weeks' High & Low Weather Summary

 TemperatureHumidityPressure
High86 °F (Apr 10, 4:00 PM)100% (Apr 14, 5:00 AM)30.18 "Hg (Apr 14, 5:00 AM)
Low63 °F (Apr 15, 7:00 AM)52% (Apr 10, 4:00 PM)29.89 "Hg (Apr 10, 4:00 PM)
Average72 °F79%30.04 "Hg
* Reported Apr 9 10:00 PM — Apr 24 10:00 PM, Manizales, Weather by CustomWeather, © 2015

Note: Actual official high and low records may vary slightly from our data, if they occured in-between our weather recording intervals... More about our weather records

Advertising

Manizales weather history for previous 24 hours

 ConditionsComfort  
Time TempWeatherWind HumidityBarometerVisibility
10:00 PM
Fri, Apr 24
70 °FPassing clouds.8 mph83%30.07 "HgN/A
9:00 PM70 °FPassing clouds.7 mph83%30.06 "HgN/A
8:00 PM72 °FPassing clouds.7 mph83%30.03 "HgN/A
7:00 PM72 °FPassing clouds.6 mph78%30.00 "HgN/A
6:00 PM75 °FScattered clouds.5 mph74%29.97 "HgN/A
5:00 PM75 °FScattered clouds.2 mph74%29.96 "HgN/A
4:00 PM75 °FScattered clouds.5 mph74%29.97 "HgN/A
3:00 PM72 °FScattered clouds.8 mph83%29.98 "HgN/A
2:00 PM73 °FThunderstorms. Scattered clouds.6 mph83%30.00 "HgN/A
1:00 PM77 °FThunderstorms. Broken clouds.2 mph74%30.02 "Hg5 mi
12:00 PM79 °FScattered clouds.6 mph70%30.03 "HgN/A
11:00 AM77 °FScattered clouds.5 mph69%30.05 "HgN/A
10:00 AM75 °FScattered clouds.2 mph74%30.06 "Hg15 mi
9:00 AM73 °FPartly sunny.3 mph78%30.07 "HgN/A
8:00 AM72 °FBroken clouds.5 mph78%30.06 "HgN/A
7:00 AM68 °FScattered clouds.7 mph83%30.03 "HgN/A
6:00 AM66 °FScattered clouds.6 mph88%30.03 "HgN/A
5:00 AM68 °FPassing clouds.6 mph83%30.02 "HgN/A
12:00 AM70 °FPassing clouds.9 mph83%30.01 "HgN/A
11:00 PM
Thu, Apr 23
72 °FPassing clouds.8 mph83%30.03 "HgN/A
Weather by CustomWeather, © 2015

See weather overviewHow to use our weather pages